Location: Ambatotampy
(18.8181°S, 47.6186°E)
Time: 23:09:52
(UTC+00:00)

Cosmos 2263 Rocket - Pass Details

Date: 21 January 2021
Orbit: 825 x 847 km, 71.0° (Epoch: 24 February)

Event Time Altitude Azimuth Distance (km) Brightness Sun altitude
Exits shadow 00:45:26 17° 10° (N) 1,954 3.9 -22.7°
Maximum altitude 00:49:23 46° 76° (ENE) 1,103 3.0 -21.9°
Drops below altitude 10° 00:54:41 10° 147° (SSE) 2,440 5.5 -20.8°
Sets 00:57:13 0° 153° (SSE) 3,380 6.3 -20.3°
